This is the latest recevied weather packets stored in our database for station/object W2GRK-15. If no packets are shown the sender has not sent any weather packets the latest 10 day(s).
| Time | Temp. | Humidity | Pressure | Rain* | Wind** | Luminosity | Snow |
|---|---|---|---|---|---|---|---|
| 1777467267 | 14.44° C | 60% | 1016.4 hPa | 0 mm | - | 294 W/m² | - |
| 1777466365 | 14.44° C | 63% | 1016.6 hPa | 0 mm | - | 308 W/m² | - |
| 1777466079 | 13.33° C | 66% | 1016.4 hPa | 0 mm | - | 257 W/m² | - |
| 1777466010 | 13.33° C | 66% | 1016.5 hPa | 0 mm | - | 263 W/m² | - |
| 1777465769 | 13.33° C | 65% | 1016.7 hPa | 0 mm | - | 238 W/m² | - |
| 1777465221 | 13.33° C | 68% | 1016.7 hPa | 0 mm | - | 185 W/m² | - |
| 1777465108 | 13.33° C | 67% | 1016.7 hPa | 0 mm | - | 190 W/m² | - |
| 1777464867 | 13.33° C | 67% | 1016.8 hPa | 0 mm | - | 216 W/m² | - |
| 1777464384 | 12.78° C | 65% | 1016.8 hPa | 0 mm | - | 202 W/m² | - |
| 1777464320 | 12.78° C | 68% | 1016.8 hPa | 0 mm | - | 195 W/m² | - |
| 1777463837 | 12.78° C | 70% | 1016.8 hPa | 0 mm | - | 157 W/m² | - |
| 1777463724 | 12.78° C | 70% | 1016.7 hPa | 0 mm | - | 147 W/m² | - |
| 1777463659 | 12.78° C | 71% | 1016.8 hPa | 0 mm | - | 141 W/m² | - |
| 1777463370 | 12.22° C | 72% | 1016.6 hPa | 0 mm | - | 121 W/m² | - |
| 1777462887 | 12.22° C | 73% | 1016.7 hPa | 0 mm | - | 92 W/m² | - |
| 1777462842 | 11.67° C | 73% | 1016.8 hPa | 0 mm | - | 87 W/m² | - |
| 1777461808 | 12.22° C | 72% | 1017 hPa | 0 mm | - | 81 W/m² | - |
| 1777461196 | 11.11° C | 73% | 1017.3 hPa | 0 mm | - | 80 W/m² | - |
| 1777460600 | 10.56° C | 74% | 1017 hPa | 0 mm | - | 54 W/m² | - |
| 1777460423 | 10.56° C | 75% | 1017 hPa | 0 mm | - | 49 W/m² | - |
| 1777460181 | 10.56° C | 75% | 1017.1 hPa | 0 mm | - | 44 W/m² | - |
| 1777460117 | 10.56° C | 75% | 1017.1 hPa | 0 mm | - | 42 W/m² | - |
| 1777459939 | 10° C | 76% | 1017 hPa | 0 mm | - | 39 W/m² | - |
| 1777459827 | 10° C | 76% | 1016.9 hPa | 0 mm | - | 36 W/m² | - |
| 1777459698 | 10° C | 76% | 1016.8 hPa | 0 mm | - | 34 W/m² | - |
* Rain latest hour (hover to see other rain measurements)
** Current wind speed in m/s (hover to see current wind gust speed)